Weather History for KIMT - May, 2013

Change the Weather History Date:

Sunday, May 12, 2013

  Actual Average Record
Temperature  
Mean Temperature 36 °F -  
Max Temperature 45 °F 67 °F 87 °F (1977)
Min Temperature 26 °F 38 °F 20 °F (1939)
Degree Days  
Heating Degree Days 30    
Moisture  
Dew Point 22 °F    
Average Humidity 60    
Maximum Humidity 79    
Minimum Humidity 35    
Precipitation  
Precipitation 0.00 in - - ()
Sea Level Pressure  
Sea Level Pressure 30.03 in    
Wind  
Wind Speed 16 mph (NW)    
Max Wind Speed 22 mph    
Max Gust Speed 36 mph    
Visibility 10 miles    
Events      
Averages and records for this station are not official NWS values.
T = Trace of Precipitation, MM = Missing Value Source: NWS Daily Summary

Daily Weather History Graph

Daily Weather History Graph

Search for Another Location

Airport or City:

Trip Planner

Search our weather history database for the weather conditions in past years. The results will help you decide how hot, cold, wet, or windy it might be!

Date:

Astronomy

May. 12, 2013 Rise Set
Actual Time 5:24 AM CDT 8:14 PM CDT
Civil Twilight 4:49 AM CDT 8:48 PM CDT
Nautical Twilight 4:05 AM CDT 9:32 PM CDT
Astronomical Twilight 3:14 AM CDT 10:25 PM CDT
Moon 7:17 AM CDT (5/12) 10:42 PM CDT (5/12)
Length of Visible Light 15h 59m
Length of Day
14h 49m
Waxing Crescent, 7% of the Moon is Illuminated
May 12
Waxing Crescent
May 17
First Quarter
May 24
Full
May 31
Last Quarter
Jun 8
New

Hourly Weather History & Observations

Time (CDT) Temp. Windchill Dew Point Humidity Pressure Visibility Wind Dir Wind Speed Gust Speed Precip Events Conditions
12:41 AM 33.8 °F 23.2 °F 26.6 °F 75% 29.91 in 10.0 mi NW 17.3 mph 27.6 mph N/A   Mostly Cloudy
12:54 AM 33.1 °F 22.6 °F 27.0 °F 78% 29.94 in 10.0 mi NW 16.1 mph 24.2 mph N/A   Mostly Cloudy
1:34 AM 33.8 °F 23.5 °F 26.6 °F 75% 29.91 in 10.0 mi NW 16.1 mph 24.2 mph N/A   Mostly Cloudy
1:54 AM 33.1 °F 22.6 °F 27.0 °F 78% 29.95 in 10.0 mi NW 16.1 mph 21.9 mph N/A   Overcast
2:05 AM 33.8 °F 23.5 °F 26.6 °F 75% 29.91 in 10.0 mi NW 16.1 mph 21.9 mph N/A   Overcast
2:54 AM 32.0 °F 19.5 °F 26.1 °F 79% 29.96 in 10.0 mi NW 21.9 mph 27.6 mph N/A   Mostly Cloudy
3:54 AM 32.0 °F 20.1 °F 26.1 °F 79% 29.98 in 10.0 mi NNW 19.6 mph 26.5 mph N/A   Mostly Cloudy
4:54 AM 33.1 °F 21.2 °F 25.0 °F 72% 29.99 in 10.0 mi NW 20.7 mph 35.7 mph 0.00 in   Overcast
5:54 AM 32.0 °F 20.5 °F 23.0 °F 69% 30.00 in 10.0 mi NNW 18.4 mph 28.8 mph N/A   Overcast
6:03 AM 32.0 °F 20.1 °F 23.0 °F 69% 29.97 in 10.0 mi NNW 19.6 mph 25.3 mph N/A   Overcast
6:26 AM 32.0 °F 20.5 °F 23.0 °F 69% 29.97 in 10.0 mi NW 18.4 mph 25.3 mph N/A   Overcast
6:54 AM 32.0 °F 21.6 °F 24.1 °F 73% 30.02 in 10.0 mi NNW 15.0 mph 31.1 mph 0.00 in   Overcast
7:54 AM 33.1 °F 21.2 °F 21.9 °F 64% 30.04 in 10.0 mi NW 20.7 mph 29.9 mph 0.00 in   Overcast
8:15 AM 33.8 °F 23.2 °F 21.2 °F 60% 30.00 in 10.0 mi NNW 17.3 mph 25.3 mph N/A   Overcast
8:54 AM 34.0 °F 22.4 °F 21.0 °F 59% 30.05 in 10.0 mi NW 20.7 mph 31.1 mph N/A   Overcast
9:54 AM 34.0 °F 23.4 °F 21.0 °F 59% 30.06 in 10.0 mi NNW 17.3 mph 29.9 mph N/A   Overcast
10:54 AM 35.1 °F 24.5 °F 19.9 °F 54% 30.08 in 10.0 mi NNW 18.4 mph 27.6 mph N/A   Overcast
11:54 AM 37.0 °F 26.4 °F 19.9 °F 50% 30.08 in 10.0 mi NNW 20.7 mph 28.8 mph N/A   Overcast
12:54 PM 39.0 °F 29.0 °F 19.9 °F 46% 30.08 in 10.0 mi NNW 20.7 mph 32.2 mph N/A   Mostly Cloudy
1:54 PM 39.9 °F 30.2 °F 19.9 °F 45% 30.07 in 10.0 mi NNW 20.7 mph 27.6 mph N/A   Mostly Cloudy
2:54 PM 44.1 °F 36.5 °F 21.0 °F 40% 30.07 in 10.0 mi NNW 17.3 mph 24.2 mph N/A   Mostly Cloudy
3:54 PM 41.0 °F 33.1 °F 19.0 °F 41% 30.08 in 10.0 mi NNW 15.0 mph 25.3 mph N/A   Mostly Cloudy
4:54 PM 43.0 °F 35.4 °F 18.0 °F 37% 30.09 in 10.0 mi NNW 16.1 mph 25.3 mph N/A   Mostly Cloudy
5:54 PM 42.1 °F 34.2 °F 17.1 °F 37% 30.10 in 10.0 mi NNW 16.1 mph 26.5 mph N/A   Overcast
6:54 PM 42.1 °F 34.5 °F 16.0 °F 35% 30.10 in 10.0 mi NNW 15.0 mph 21.9 mph N/A   Overcast
7:54 PM 39.9 °F 34.5 °F 18.0 °F 41% 30.10 in 10.0 mi NNW 8.1 mph - N/A   Mostly Cloudy
8:54 PM 36.0 °F 32.1 °F 19.0 °F 50% 30.11 in 10.0 mi NW 4.6 mph - N/A   Clear
9:54 PM 32.0 °F - 18.0 °F 56% 30.13 in 10.0 mi Calm Calm - N/A   Clear
10:54 PM 27.0 °F - 19.0 °F 72% 30.13 in 10.0 mi Calm Calm - N/A   Clear
11:54 PM 26.1 °F - 18.0 °F 71% 30.13 in 10.0 mi Calm Calm - N/A   Clear